M I D A S
Marine Information and Data Acquisition System
Tripno 1302 of the Zeeleeuw from 2007-07-30 08:39:05 to 2007-07-30 13:44:51
Back to CruiseResearch ActivitiesStationsMapUnderway DataData graphs

EquipmentUnitsComment
TimeDGPSUTC
LatitudeDGPSDM.mWGS84
LongitudeDGPSDM.mWGS84
TemperatureSBE03/SBE38deg celciusITS90
ConductivitySBE21S/mITS90
SalinitySBE21 Practical Salinity Units
ChlorophylAChelsea fluorimeterg/lCalibrated in Aceton
Missing or incorrect values are displayed as -999
Sea surface data collected by the RV Zeeleeuw from 2007-07-30 06:59:30 to 2007-07-30 13:56:19
                                                                                    Next 1000 lines
Time Latitude Longitude Temperature Conductivity Salinity ChlorophylA
2007-07-30 06:59:40 51°15.783 2°53.706 -999 -999 -999 -999
2007-07-30 06:59:45 51°15.798 2°53.693 -999 -999 -999 -999
2007-07-30 06:59:50 51°15.813 2°53.68 -999 -999 -999 -999
2007-07-30 06:59:54 51°15.825 2°53.67 -999 -999 -999 -999
2007-07-30 07:00:00 51°15.842 2°53.655 -999 -999 -999 -999
2007-07-30 07:00:05 51°15.857 2°53.642 -999 -999 -999 -999
2007-07-30 07:00:10 51°15.871 2°53.63 -999 -999 -999 -999
2007-07-30 07:00:14 51°15.883 2°53.62 -999 -999 -999 -999
2007-07-30 07:00:20 51°15.901 2°53.605 -999 -999 -999 -999
2007-07-30 07:00:24 51°15.913 2°53.596 -999 -999 -999 -999
2007-07-30 07:00:29 51°15.928 2°53.584 -999 -999 -999 -999
2007-07-30 07:00:34 51°15.943 2°53.571 -999 -999 -999 -999
2007-07-30 07:00:40 51°15.96 2°53.555 -999 -999 -999 -999
2007-07-30 07:00:45 51°15.975 2°53.541 -999 -999 -999 -999
2007-07-30 07:00:50 51°15.989 2°53.528 -999 -999 -999 -999
2007-07-30 07:00:55 51°16.003 2°53.514 -999 -999 -999 -999
2007-07-30 07:01:00 51°16.017 2°53.5 -999 -999 -999 -999
2007-07-30 07:01:05 51°16.032 2°53.487 -999 -999 -999 -999
2007-07-30 07:01:09 51°16.044 2°53.477 -999 -999 -999 -999
2007-07-30 07:01:14 51°16.059 2°53.464 -999 -999 -999 -999
2007-07-30 07:01:20 51°16.076 2°53.447 -999 -999 -999 -999
2007-07-30 07:01:25 51°16.09 2°53.434 -999 -999 -999 -999
2007-07-30 07:01:29 51°16.102 2°53.422 -999 -999 -999 -999
2007-07-30 07:01:34 51°16.116 2°53.409 -999 -999 -999 -999
2007-07-30 07:01:40 51°16.133 2°53.393 -999 -999 -999 -999
2007-07-30 07:01:45 51°16.148 2°53.379 -999 -999 -999 -999
2007-07-30 07:01:50 51°16.162 2°53.366 -999 -999 -999 -999
2007-07-30 07:01:54 51°16.174 2°53.355 -999 -999 -999 -999
2007-07-30 07:02:00 51°16.191 2°53.339 -999 -999 -999 -999
2007-07-30 07:02:05 51°16.206 2°53.325 -999 -999 -999 -999
2007-07-30 07:02:10 51°16.22 2°53.312 -999 -999 -999 -999
2007-07-30 07:02:14 51°16.232 2°53.301 -999 -999 -999 -999
2007-07-30 07:02:20 51°16.249 2°53.285 -999 -999 -999 -999
2007-07-30 07:02:25 51°16.264 2°53.272 -999 -999 -999 -999
2007-07-30 07:02:30 51°16.278 2°53.259 -999 -999 -999 -999
2007-07-30 07:02:34 51°16.29 2°53.248 -999 -999 -999 -999
2007-07-30 07:02:40 51°16.307 2°53.232 -999 -999 -999 -999
2007-07-30 07:02:44 51°16.319 2°53.222 -999 -999 -999 -999
2007-07-30 07:02:50 51°16.337 2°53.206 -999 -999 -999 -999
2007-07-30 07:02:54 51°16.349 2°53.195 -999 -999 -999 -999
2007-07-30 07:03:00 51°16.366 2°53.18 -999 -999 -999 -999
2007-07-30 07:03:05 51°16.38 2°53.166 -999 -999 -999 -999
2007-07-30 07:03:10 51°16.395 2°53.153 -999 -999 -999 -999
2007-07-30 07:03:15 51°16.409 2°53.139 -999 -999 -999 -999
2007-07-30 07:03:20 51°16.423 2°53.126 -999 -999 -999 -999
2007-07-30 07:03:25 51°16.437 2°53.112 -999 -999 -999 -999
2007-07-30 07:03:29 51°16.449 2°53.102 -999 -999 -999 -999
2007-07-30 07:03:34 51°16.464 2°53.089 -999 -999 -999 -999
2007-07-30 07:03:40 51°16.481 2°53.074 -999 -999 -999 -999
2007-07-30 07:03:45 51°16.495 2°53.061 -999 -999 -999 -999
2007-07-30 07:03:49 51°16.507 2°53.052 -999 -999 -999 -999
2007-07-30 07:03:54 51°16.522 2°53.039 -999 -999 -999 -999
2007-07-30 07:04:00 51°16.54 2°53.024 -999 -999 -999 -999
2007-07-30 07:04:05 51°16.555 2°53.011 -999 -999 -999 -999
2007-07-30 07:04:10 51°16.569 2°52.999 -999 -999 -999 -999
2007-07-30 07:04:14 51°16.581 2°52.988 -999 -999 -999 -999
2007-07-30 07:04:20 51°16.599 2°52.973 -999 -999 -999 -999
2007-07-30 07:04:25 51°16.614 2°52.961 -999 -999 -999 -999
2007-07-30 07:04:30 51°16.628 2°52.948 -999 -999 -999 -999
2007-07-30 07:04:34 51°16.64 2°52.938 -999 -999 -999 -999
2007-07-30 07:04:40 51°16.658 2°52.923 -999 -999 -999 -999
2007-07-30 07:04:45 51°16.673 2°52.91 -999 -999 -999 -999
2007-07-30 07:04:49 51°16.685 2°52.9 -999 -999 -999 -999
2007-07-30 07:04:54 51°16.699 2°52.888 -999 -999 -999 -999
2007-07-30 07:05:00 51°16.717 2°52.873 -999 -999 -999 -999
2007-07-30 07:05:05 51°16.731 2°52.86 -999 -999 -999 -999
2007-07-30 07:05:10 51°16.746 2°52.847 -999 -999 -999 -999
2007-07-30 07:05:14 51°16.758 2°52.837 -999 -999 -999 -999
2007-07-30 07:05:20 51°16.775 2°52.822 -999 -999 -999 -999
2007-07-30 07:05:25 51°16.789 2°52.809 -999 -999 -999 -999
2007-07-30 07:05:30 51°16.803 2°52.797 -999 -999 -999 -999
2007-07-30 07:05:35 51°16.818 2°52.784 -999 -999 -999 -999
2007-07-30 07:05:40 51°16.832 2°52.772 -999 -999 -999 -999
2007-07-30 07:05:45 51°16.846 2°52.761 -999 -999 -999 -999
2007-07-30 07:05:49 51°16.858 2°52.752 -999 -999 -999 -999
2007-07-30 07:05:54 51°16.873 2°52.741 -999 -999 -999 -999
2007-07-30 07:06:00 51°16.89 2°52.729 -999 -999 -999 -999
2007-07-30 07:06:05 51°16.905 2°52.719 -999 -999 -999 -999
2007-07-30 07:06:09 51°16.917 2°52.712 -999 -999 -999 -999
2007-07-30 07:06:14 51°16.932 2°52.703 -999 -999 -999 -999
2007-07-30 07:06:20 51°16.951 2°52.693 -999 -999 -999 -999
2007-07-30 07:06:25 51°16.966 2°52.686 -999 -999 -999 -999
2007-07-30 07:06:30 51°16.982 2°52.678 -999 -999 -999 -999
2007-07-30 07:06:34 51°16.994 2°52.673 -999 -999 -999 -999
2007-07-30 07:06:40 51°17.013 2°52.664 -999 -999 -999 -999
2007-07-30 07:06:45 51°17.028 2°52.658 -999 -999 -999 -999
2007-07-30 07:06:50 51°17.043 2°52.651 -999 -999 -999 -999
2007-07-30 07:06:54 51°17.056 2°52.646 -999 -999 -999 -999
2007-07-30 07:07:00 51°17.074 2°52.638 -999 -999 -999 -999
2007-07-30 07:07:05 51°17.09 2°52.631 -999 -999 -999 -999
2007-07-30 07:07:09 51°17.102 2°52.626 -999 -999 -999 -999
2007-07-30 07:07:14 51°17.117 2°52.619 -999 -999 -999 -999
2007-07-30 07:07:20 51°17.135 2°52.611 -999 -999 -999 -999
2007-07-30 07:07:25 51°17.151 2°52.603 -999 -999 -999 -999
2007-07-30 07:07:30 51°17.166 2°52.596 -999 -999 -999 -999
2007-07-30 07:07:35 51°17.182 2°52.59 -999 -999 -999 -999
2007-07-30 07:07:40 51°17.197 2°52.583 -999 -999 -999 -999
2007-07-30 07:07:45 51°17.213 2°52.575 -999 -999 -999 -999
2007-07-30 07:07:49 51°17.225 2°52.569 -999 -999 -999 -999
2007-07-30 07:07:54 51°17.24 2°52.561 -999 -999 -999 -999
2007-07-30 07:08:00 51°17.259 2°52.553 -999 -999 -999 -999
2007-07-30 07:08:05 51°17.274 2°52.545 -999 -999 -999 -999
2007-07-30 07:08:09 51°17.286 2°52.539 -999 -999 -999 -999
2007-07-30 07:08:14 51°17.302 2°52.532 -999 -999 -999 -999
2007-07-30 07:08:20 51°17.32 2°52.524 -999 -999 -999 -999
2007-07-30 07:08:25 51°17.336 2°52.52 -999 -999 -999 -999
2007-07-30 07:08:30 51°17.351 2°52.517 -999 -999 -999 -999
2007-07-30 07:08:34 51°17.364 2°52.516 -999 -999 -999 -999
2007-07-30 07:08:40 51°17.383 2°52.515 -999 -999 -999 -999
2007-07-30 07:08:45 51°17.398 2°52.515 -999 -999 -999 -999
2007-07-30 07:08:50 51°17.414 2°52.516 -999 -999 -999 -999
2007-07-30 07:08:54 51°17.427 2°52.516 -999 -999 -999 -999
2007-07-30 07:09:00 51°17.445 2°52.518 -999 -999 -999 -999
2007-07-30 07:09:05 51°17.461 2°52.519 -999 -999 -999 -999
2007-07-30 07:09:10 51°17.477 2°52.521 -999 -999 -999 -999
2007-07-30 07:09:14 51°17.489 2°52.521 -999 -999 -999 -999
2007-07-30 07:09:20 51°17.508 2°52.523 -999 -999 -999 -999
2007-07-30 07:09:25 51°17.524 2°52.524 -999 -999 -999 -999
2007-07-30 07:09:29 51°17.536 2°52.525 -999 -999 -999 -999
2007-07-30 07:09:34 51°17.552 2°52.526 -999 -999 -999 -999
2007-07-30 07:09:40 51°17.571 2°52.527 -999 -999 -999 -999
2007-07-30 07:09:45 51°17.587 2°52.527 -999 -999 -999 -999
2007-07-30 07:09:50 51°17.602 2°52.528 -999 -999 -999 -999
2007-07-30 07:09:55 51°17.618 2°52.53 -999 -999 -999 -999
2007-07-30 07:10:00 51°17.634 2°52.53 -999 -999 -999 -999
2007-07-30 07:10:05 51°17.649 2°52.532 -999 -999 -999 -999
2007-07-30 07:10:09 51°17.662 2°52.532 -999 -999 -999 -999
2007-07-30 07:10:14 51°17.678 2°52.533 -999 -999 -999 -999
2007-07-30 07:10:20 51°17.697 2°52.533 -999 -999 -999 -999
2007-07-30 07:10:25 51°17.712 2°52.534 -999 -999 -999 -999
2007-07-30 07:10:29 51°17.724 2°52.534 -999 -999 -999 -999
2007-07-30 07:10:34 51°17.74 2°52.535 -999 -999 -999 -999
2007-07-30 07:10:40 51°17.759 2°52.536 -999 -999 -999 -999
2007-07-30 07:10:45 51°17.774 2°52.536 -999 -999 -999 -999
2007-07-30 07:10:50 51°17.79 2°52.537 -999 -999 -999 -999
2007-07-30 07:10:55 51°17.806 2°52.538 -999 -999 -999 -999
2007-07-30 07:11:00 51°17.821 2°52.539 -999 -999 -999 -999
2007-07-30 07:11:05 51°17.837 2°52.539 -999 -999 -999 -999
2007-07-30 07:11:10 51°17.852 2°52.54 -999 -999 -999 -999
2007-07-30 07:11:14 51°17.865 2°52.542 -999 -999 -999 -999
2007-07-30 07:11:20 51°17.883 2°52.545 -999 -999 -999 -999
2007-07-30 07:11:25 51°17.898 2°52.548 -999 -999 -999 -999
2007-07-30 07:11:30 51°17.914 2°52.551 -999 -999 -999 -999
2007-07-30 07:11:34 51°17.926 2°52.554 -999 -999 -999 -999
2007-07-30 07:11:40 51°17.944 2°52.557 -999 -999 -999 -999
2007-07-30 07:11:45 51°17.959 2°52.561 -999 -999 -999 -999
2007-07-30 07:11:50 51°17.975 2°52.566 -999 -999 -999 -999
2007-07-30 07:11:54 51°17.986 2°52.571 -999 -999 -999 -999
2007-07-30 07:12:00 51°18.004 2°52.581 -999 -999 -999 -999
2007-07-30 07:12:05 51°18.018 2°52.591 -999 -999 -999 -999
2007-07-30 07:12:10 51°18.031 2°52.603 -999 -999 -999 -999
2007-07-30 07:12:15 51°18.044 2°52.615 -999 -999 -999 -999
2007-07-30 07:12:20 51°18.057 2°52.629 -999 -999 -999 -999
2007-07-30 07:12:25 51°18.069 2°52.644 -999 -999 -999 -999
2007-07-30 07:12:29 51°18.078 2°52.657 -999 -999 -999 -999
2007-07-30 07:12:34 51°18.09 2°52.672 -999 -999 -999 -999
2007-07-30 07:12:40 51°18.105 2°52.691 -999 -999 -999 -999
2007-07-30 07:12:45 51°18.117 2°52.708 -999 -999 -999 -999
2007-07-30 07:12:49 51°18.127 2°52.72 -999 -999 -999 -999
2007-07-30 07:12:54 51°18.139 2°52.736 -999 -999 -999 -999
2007-07-30 07:13:00 51°18.153 2°52.756 -999 -999 -999 -999
2007-07-30 07:13:05 51°18.165 2°52.771 -999 -999 -999 -999
2007-07-30 07:13:10 51°18.177 2°52.788 -999 -999 -999 -999
2007-07-30 07:13:14 51°18.186 2°52.801 -999 -999 -999 -999
2007-07-30 07:13:20 51°18.199 2°52.823 -999 -999 -999 -999
2007-07-30 07:13:25 51°18.208 2°52.843 -999 -999 -999 -999
2007-07-30 07:13:30 51°18.216 2°52.863 -999 -999 -999 -999
2007-07-30 07:13:34 51°18.223 2°52.881 -999 -999 -999 -999
2007-07-30 07:13:40 51°18.232 2°52.907 -999 -999 -999 -999
2007-07-30 07:13:45 51°18.239 2°52.929 -999 -999 -999 -999
2007-07-30 07:13:49 51°18.246 2°52.947 -999 -999 -999 -999
2007-07-30 07:13:54 51°18.253 2°52.97 -999 -999 -999 -999
2007-07-30 07:14:00 51°18.261 2°52.998 -999 -999 -999 -999
2007-07-30 07:14:05 51°18.268 2°53.02 -999 -999 -999 -999
2007-07-30 07:14:10 51°18.275 2°53.044 -999 -999 -999 -999
2007-07-30 07:14:15 51°18.283 2°53.066 -999 -999 -999 -999
2007-07-30 07:14:20 51°18.29 2°53.089 -999 -999 -999 -999
2007-07-30 07:14:25 51°18.297 2°53.112 -999 -999 -999 -999
2007-07-30 07:14:30 51°18.305 2°53.134 -999 -999 -999 -999
2007-07-30 07:14:34 51°18.312 2°53.152 -999 -999 -999 -999
2007-07-30 07:14:40 51°18.32 2°53.179 -999 -999 -999 -999
2007-07-30 07:14:45 51°18.327 2°53.201 -999 -999 -999 -999
2007-07-30 07:14:49 51°18.333 2°53.22 -999 -999 -999 -999
2007-07-30 07:14:54 51°18.34 2°53.243 -999 -999 -999 -999
2007-07-30 07:15:00 51°18.349 2°53.27 -999 -999 -999 -999
2007-07-30 07:15:05 51°18.357 2°53.292 -999 -999 -999 -999
2007-07-30 07:15:10 51°18.364 2°53.315 -999 -999 -999 -999
2007-07-30 07:15:14 51°18.369 2°53.333 -999 -999 -999 -999
2007-07-30 07:15:20 51°18.377 2°53.361 -999 -999 -999 -999
2007-07-30 07:15:25 51°18.384 2°53.384 -999 -999 -999 -999
2007-07-30 07:15:30 51°18.391 2°53.407 -999 -999 -999 -999
2007-07-30 07:15:35 51°18.398 2°53.43 -999 -999 -999 -999
2007-07-30 07:15:40 51°18.404 2°53.453 -999 -999 -999 -999
2007-07-30 07:15:45 51°18.411 2°53.476 -999 -999 -999 -999
2007-07-30 07:15:50 51°18.417 2°53.499 -999 -999 -999 -999
2007-07-30 07:15:54 51°18.423 2°53.517 -999 -999 -999 -999
2007-07-30 07:16:00 51°18.431 2°53.544 -999 -999 -999 -999
2007-07-30 07:16:05 51°18.438 2°53.567 -999 -999 -999 -999
2007-07-30 07:16:09 51°18.443 2°53.586 -999 -999 -999 -999
2007-07-30 07:16:14 51°18.45 2°53.609 -999 -999 -999 -999
2007-07-30 07:16:20 51°18.46 2°53.635 -999 -999 -999 -999
2007-07-30 07:16:25 51°18.465 2°53.659 -999 -999 -999 -999
2007-07-30 07:16:30 51°18.473 2°53.681 -999 -999 -999 -999
2007-07-30 07:16:35 51°18.48 2°53.704 -999 -999 -999 -999
2007-07-30 07:16:40 51°18.487 2°53.725 -999 -999 -999 -999
2007-07-30 07:16:45 51°18.495 2°53.747 -999 -999 -999 -999
2007-07-30 07:16:50 51°18.503 2°53.768 -999 -999 -999 -999
2007-07-30 07:16:54 51°18.508 2°53.787 -999 -999 -999 -999
2007-07-30 07:17:00 51°18.517 2°53.814 -999 -999 -999 -999
2007-07-30 07:17:05 51°18.523 2°53.838 -999 -999 -999 -999
2007-07-30 07:17:10 51°18.531 2°53.859 -999 -999 -999 -999
2007-07-30 07:17:14 51°18.535 2°53.879 -999 -999 -999 -999
2007-07-30 07:17:20 51°18.544 2°53.905 -999 -999 -999 -999
2007-07-30 07:17:25 51°18.55 2°53.928 -999 -999 -999 -999
2007-07-30 07:17:30 51°18.559 2°53.949 -999 -999 -999 -999
2007-07-30 07:17:34 51°18.563 2°53.968 -999 -999 -999 -999
2007-07-30 07:17:40 51°18.572 2°53.994 -999 -999 -999 -999
2007-07-30 07:17:45 51°18.578 2°54.017 -999 -999 -999 -999
2007-07-30 07:17:50 51°18.585 2°54.04 -999 -999 -999 -999
2007-07-30 07:17:54 51°18.589 2°54.059 -999 -999 -999 -999
2007-07-30 07:18:00 51°18.598 2°54.086 -999 -999 -999 -999
2007-07-30 07:18:05 51°18.603 2°54.11 -999 -999 -999 -999
2007-07-30 07:18:10 51°18.609 2°54.134 -999 -999 -999 -999
2007-07-30 07:18:14 51°18.614 2°54.153 -999 -999 -999 -999
2007-07-30 07:18:20 51°18.621 2°54.18 -999 -999 -999 -999
2007-07-30 07:18:25 51°18.627 2°54.204 -999 -999 -999 -999
2007-07-30 07:18:30 51°18.632 2°54.227 -999 -999 -999 -999
2007-07-30 07:18:34 51°18.638 2°54.245 -999 -999 -999 -999
2007-07-30 07:18:40 51°18.643 2°54.275 -999 -999 -999 -999
2007-07-30 07:18:45 51°18.651 2°54.297 -999 -999 -999 -999
2007-07-30 07:18:50 51°18.655 2°54.321 -999 -999 -999 -999
2007-07-30 07:18:55 51°18.662 2°54.344 -999 -999 -999 -999
2007-07-30 07:19:00 51°18.667 2°54.368 -999 -999 -999 -999
2007-07-30 07:19:05 51°18.673 2°54.391 -999 -999 -999 -999
2007-07-30 07:19:10 51°18.679 2°54.415 -999 -999 -999 -999
2007-07-30 07:19:14 51°18.683 2°54.434 -999 -999 -999 -999
2007-07-30 07:19:20 51°18.69 2°54.462 -999 -999 -999 -999
2007-07-30 07:19:25 51°18.696 2°54.486 -999 -999 -999 -999
2007-07-30 07:19:29 51°18.701 2°54.504 -999 -999 -999 -999
2007-07-30 07:19:34 51°18.706 2°54.528 -999 -999 -999 -999
2007-07-30 07:19:40 51°18.714 2°54.555 -999 -999 -999 -999
2007-07-30 07:19:45 51°18.72 2°54.579 -999 -999 -999 -999
2007-07-30 07:19:50 51°18.726 2°54.603 -999 -999 -999 -999
2007-07-30 07:19:55 51°18.732 2°54.627 -999 -999 -999 -999
2007-07-30 07:20:00 51°18.738 2°54.65 -999 -999 -999 -999
2007-07-30 07:20:05 51°18.743 2°54.674 -999 -999 -999 -999
2007-07-30 07:20:10 51°18.75 2°54.697 -999 -999 -999 -999
2007-07-30 07:20:14 51°18.754 2°54.717 -999 -999 -999 -999
2007-07-30 07:20:20 51°18.761 2°54.745 -999 -999 -999 -999
2007-07-30 07:20:25 51°18.768 2°54.768 -999 -999 -999 -999
2007-07-30 07:20:29 51°18.772 2°54.787 -999 -999 -999 -999
2007-07-30 07:20:34 51°18.78 2°54.809 -999 -999 -999 -999
2007-07-30 07:20:40 51°18.787 2°54.837 -999 -999 -999 -999
2007-07-30 07:20:45 51°18.792 2°54.861 -999 -999 -999 -999
2007-07-30 07:20:50 51°18.799 2°54.884 -999 -999 -999 -999
2007-07-30 07:20:54 51°18.804 2°54.903 -999 -999 -999 -999
2007-07-30 07:21:00 51°18.811 2°54.931 -999 -999 -999 -999
2007-07-30 07:21:05 51°18.817 2°54.954 -999 -999 -999 -999
2007-07-30 07:21:10 51°18.824 2°54.977 -999 -999 -999 -999
2007-07-30 07:21:15 51°18.83 2°55.001 -999 -999 -999 -999
2007-07-30 07:21:20 51°18.835 2°55.024 -999 -999 -999 -999
2007-07-30 07:21:25 51°18.842 2°55.048 -999 -999 -999 -999
2007-07-30 07:21:30 51°18.848 2°55.071 -999 -999 -999 -999
2007-07-30 07:21:34 51°18.853 2°55.089 -999 -999 -999 -999
2007-07-30 07:21:40 51°18.86 2°55.117 -999 -999 -999 -999
2007-07-30 07:21:45 51°18.865 2°55.141 -999 -999 -999 -999
2007-07-30 07:21:50 51°18.871 2°55.165 -999 -999 -999 -999
2007-07-30 07:21:54 51°18.875 2°55.184 -999 -999 -999 -999
2007-07-30 07:22:00 51°18.882 2°55.212 -999 -999 -999 -999
2007-07-30 07:22:05 51°18.887 2°55.236 -999 -999 -999 -999
2007-07-30 07:22:10 51°18.893 2°55.259 -999 -999 -999 -999
2007-07-30 07:22:14 51°18.896 2°55.279 -999 -999 -999 -999
2007-07-30 07:22:20 51°18.903 2°55.307 -999 -999 -999 -999
2007-07-30 07:22:25 51°18.909 2°55.331 -999 -999 -999 -999
2007-07-30 07:22:30 51°18.914 2°55.355 -999 -999 -999 -999
2007-07-30 07:22:34 51°18.918 2°55.374 -999 -999 -999 -999
2007-07-30 07:22:40 51°18.925 2°55.402 -999 -999 -999 -999
2007-07-30 07:22:45 51°18.929 2°55.427 -999 -999 -999 -999
2007-07-30 07:22:49 51°18.935 2°55.445 -999 -999 -999 -999
2007-07-30 07:22:54 51°18.939 2°55.47 -999 -999 -999 -999
2007-07-30 07:23:00 51°18.946 2°55.498 -999 -999 -999 -999
2007-07-30 07:23:05 51°18.952 2°55.522 -999 -999 -999 -999
2007-07-30 07:23:10 51°18.958 2°55.545 -999 -999 -999 -999
2007-07-30 07:23:15 51°18.963 2°55.569 -999 -999 -999 -999
2007-07-30 07:23:20 51°18.968 2°55.593 -999 -999 -999 -999
2007-07-30 07:23:25 51°18.975 2°55.616 -999 -999 -999 -999
2007-07-30 07:23:30 51°18.98 2°55.641 -999 -999 -999 -999
2007-07-30 07:23:34 51°18.985 2°55.659 -999 -999 -999 -999
2007-07-30 07:23:40 51°18.992 2°55.688 -999 -999 -999 -999
2007-07-30 07:23:45 51°18.997 2°55.711 -999 -999 -999 -999
2007-07-30 07:23:50 51°19.002 2°55.735 -999 -999 -999 -999
2007-07-30 07:23:54 51°19.007 2°55.754 -999 -999 -999 -999
2007-07-30 07:24:00 51°19.014 2°55.782 -999 -999 -999 -999
2007-07-30 07:24:05 51°19.019 2°55.806 -999 -999 -999 -999
2007-07-30 07:24:10 51°19.025 2°55.829 -999 -999 -999 -999
2007-07-30 07:24:15 51°19.03 2°55.853 -999 -999 -999 -999
2007-07-30 07:24:20 51°19.036 2°55.876 -999 -999 -999 -999
2007-07-30 07:24:25 51°19.041 2°55.9 -999 -999 -999 -999
2007-07-30 07:24:30 51°19.047 2°55.923 -999 -999 -999 -999
2007-07-30 07:24:34 51°19.051 2°55.941 -999 -999 -999 -999
2007-07-30 07:24:40 51°19.058 2°55.969 -999 -999 -999 -999
2007-07-30 07:24:45 51°19.062 2°55.993 -999 -999 -999 -999
2007-07-30 07:24:50 51°19.068 2°56.016 -999 -999 -999 -999
2007-07-30 07:24:54 51°19.072 2°56.034 -999 -999 -999 -999
2007-07-30 07:25:00 51°19.078 2°56.063 -999 -999 -999 -999
2007-07-30 07:25:05 51°19.084 2°56.085 -999 -999 -999 -999
2007-07-30 07:25:10 51°19.09 2°56.108 -999 -999 -999 -999
2007-07-30 07:25:14 51°19.093 2°56.127 -999 -999 -999 -999
2007-07-30 07:25:20 51°19.101 2°56.154 -999 -999 -999 -999
2007-07-30 07:25:25 51°19.106 2°56.178 -999 -999 -999 -999
2007-07-30 07:25:30 51°19.112 2°56.201 -999 -999 -999 -999
2007-07-30 07:25:35 51°19.117 2°56.224 -999 -999 -999 -999
2007-07-30 07:25:40 51°19.124 2°56.246 -999 -999 -999 -999
2007-07-30 07:25:45 51°19.129 2°56.269 -999 -999 -999 -999
2007-07-30 07:25:50 51°19.135 2°56.292 -999 -999 -999 -999
2007-07-30 07:25:54 51°19.139 2°56.31 -999 -999 -999 -999
2007-07-30 07:26:00 51°19.146 2°56.338 -999 -999 -999 -999
2007-07-30 07:26:05 51°19.152 2°56.361 -999 -999 -999 -999
2007-07-30 07:26:09 51°19.157 2°56.379 -999 -999 -999 -999
2007-07-30 07:26:14 51°19.162 2°56.402 -999 -999 -999 -999
2007-07-30 07:26:20 51°19.17 2°56.43 -999 -999 -999 -999
2007-07-30 07:26:25 51°19.176 2°56.453 -999 -999 -999 -999
2007-07-30 07:26:30 51°19.181 2°56.476 -999 -999 -999 -999
2007-07-30 07:26:35 51°19.187 2°56.499 -999 -999 -999 -999
2007-07-30 07:26:40 51°19.193 2°56.522 -999 -999 -999 -999
2007-07-30 07:26:45 51°19.199 2°56.545 -999 -999 -999 -999
2007-07-30 07:26:50 51°19.204 2°56.568 -999 -999 -999 -999
2007-07-30 07:26:54 51°19.209 2°56.586 -999 -999 -999 -999
2007-07-30 07:27:00 51°19.214 2°56.615 -999 -999 -999 -999
2007-07-30 07:27:05 51°19.221 2°56.637 -999 -999 -999 -999
2007-07-30 07:27:09 51°19.225 2°56.656 -999 -999 -999 -999
2007-07-30 07:27:14 51°19.231 2°56.679 -999 -999 -999 -999
2007-07-30 07:27:20 51°19.237 2°56.706 -999 -999 -999 -999
2007-07-30 07:27:25 51°19.242 2°56.73 -999 -999 -999 -999
2007-07-30 07:27:30 51°19.248 2°56.752 -999 -999 -999 -999
2007-07-30 07:27:35 51°19.254 2°56.775 -999 -999 -999 -999
2007-07-30 07:27:40 51°19.258 2°56.798 -999 -999 -999 -999
2007-07-30 07:27:45 51°19.264 2°56.821 -999 -999 -999 -999
2007-07-30 07:27:50 51°19.27 2°56.844 -999 -999 -999 -999
2007-07-30 07:27:54 51°19.274 2°56.862 -999 -999 -999 -999
2007-07-30 07:28:00 51°19.281 2°56.889 -999 -999 -999 -999
2007-07-30 07:28:05 51°19.286 2°56.913 -999 -999 -999 -999
2007-07-30 07:28:10 51°19.292 2°56.935 -999 -999 -999 -999
2007-07-30 07:28:14 51°19.296 2°56.954 -999 -999 -999 -999
2007-07-30 07:28:20 51°19.301 2°56.982 -999 -999 -999 -999
2007-07-30 07:28:25 51°19.308 2°57.004 -999 -999 -999 -999
2007-07-30 07:28:30 51°19.311 2°57.028 -999 -999 -999 -999
2007-07-30 07:28:35 51°19.318 2°57.05 -999 -999 -999 -999
2007-07-30 07:28:40 51°19.321 2°57.075 -999 -999 -999 -999
2007-07-30 07:28:45 51°19.328 2°57.097 -999 -999 -999 -999
2007-07-30 07:28:50 51°19.332 2°57.12 -999 -999 -999 -999
2007-07-30 07:28:55 51°19.338 2°57.143 -999 -999 -999 -999
2007-07-30 07:29:00 51°19.344 2°57.166 -999 -999 -999 -999
2007-07-30 07:29:05 51°19.349 2°57.189 -999 -999 -999 -999
2007-07-30 07:29:10 51°19.355 2°57.212 -999 -999 -999 -999
2007-07-30 07:29:14 51°19.358 2°57.231 -999 -999 -999 -999
2007-07-30 07:29:20 51°19.365 2°57.258 -999 -999 -999 -999
2007-07-30 07:29:25 51°19.37 2°57.281 -999 -999 -999 -999
2007-07-30 07:29:30 51°19.376 2°57.304 -999 -999 -999 -999
2007-07-30 07:29:34 51°19.379 2°57.323 -999 -999 -999 -999
2007-07-30 07:29:40 51°19.387 2°57.35 -999 -999 -999 -999
2007-07-30 07:29:45 51°19.391 2°57.375 -999 -999 -999 -999
2007-07-30 07:29:50 51°19.398 2°57.396 -999 -999 -999 -999
2007-07-30 07:29:55 51°19.401 2°57.42 -999 -999 -999 -999
2007-07-30 07:30:00 51°19.409 2°57.442 -999 -999 -999 -999
2007-07-30 07:30:05 51°19.413 2°57.465 -999 -999 -999 -999
2007-07-30 07:30:10 51°19.419 2°57.489 -999 -999 -999 -999
2007-07-30 07:30:14 51°19.424 2°57.507 -999 -999 -999 -999
2007-07-30 07:30:20 51°19.43 2°57.535 -999 -999 -999 -999
2007-07-30 07:30:25 51°19.435 2°57.558 -999 -999 -999 -999
2007-07-30 07:30:30 51°19.44 2°57.581 -999 -999 -999 -999
2007-07-30 07:30:34 51°19.444 2°57.599 -999 -999 -999 -999
2007-07-30 07:30:40 51°19.451 2°57.626 -999 -999 -999 -999
2007-07-30 07:30:45 51°19.457 2°57.648 -999 -999 -999 -999
2007-07-30 07:30:50 51°19.462 2°57.671 -999 -999 -999 -999
2007-07-30 07:30:55 51°19.468 2°57.694 -999 -999 -999 -999
2007-07-30 07:31:00 51°19.473 2°57.717 -999 -999 -999 -999
2007-07-30 07:31:05 51°19.479 2°57.74 -999 -999 -999 -999
2007-07-30 07:31:10 51°19.484 2°57.762 -999 -999 -999 -999
2007-07-30 07:31:14 51°19.488 2°57.781 -999 -999 -999 -999
2007-07-30 07:31:20 51°19.495 2°57.808 -999 -999 -999 -999
2007-07-30 07:31:25 51°19.501 2°57.831 -999 -999 -999 -999
2007-07-30 07:31:30 51°19.507 2°57.854 -999 -999 -999 -999
2007-07-30 07:31:34 51°19.512 2°57.872 -999 -999 -999 -999
2007-07-30 07:31:40 51°19.518 2°57.899 -999 -999 -999 -999
2007-07-30 07:31:45 51°19.524 2°57.922 -999 -999 -999 -999
2007-07-30 07:31:50 51°19.529 2°57.946 -999 -999 -999 -999
2007-07-30 07:31:55 51°19.535 2°57.969 -999 -999 -999 -999
2007-07-30 07:31:59 51°19.539 2°57.987 -999 -999 -999 -999
2007-07-30 07:32:05 51°19.546 2°58.015 -999 -999 -999 -999
2007-07-30 07:32:10 51°19.551 2°58.038 -999 -999 -999 -999
2007-07-30 07:32:14 51°19.556 2°58.056 -999 -999 -999 -999
2007-07-30 07:32:20 51°19.563 2°58.083 -999 -999 -999 -999
2007-07-30 07:32:25 51°19.569 2°58.106 -999 -999 -999 -999
2007-07-30 07:32:30 51°19.575 2°58.129 -999 -999 -999 -999
2007-07-30 07:32:34 51°19.578 2°58.148 -999 -999 -999 -999
2007-07-30 07:32:40 51°19.585 2°58.175 -999 -999 -999 -999
2007-07-30 07:32:45 51°19.59 2°58.198 -999 -999 -999 -999
2007-07-30 07:32:50 51°19.595 2°58.221 -999 -999 -999 -999
2007-07-30 07:32:54 51°19.6 2°58.239 -999 -999 -999 -999
2007-07-30 07:33:00 51°19.605 2°58.267 -999 -999 -999 -999
2007-07-30 07:33:05 51°19.612 2°58.289 -999 -999 -999 -999
2007-07-30 07:33:10 51°19.617 2°58.312 -999 -999 -999 -999
2007-07-30 07:33:15 51°19.623 2°58.335 -999 -999 -999 -999
2007-07-30 07:33:20 51°19.629 2°58.358 -999 -999 -999 -999
2007-07-30 07:33:25 51°19.634 2°58.38 -999 -999 -999 -999
2007-07-30 07:33:29 51°19.639 2°58.398 -999 -999 -999 -999
2007-07-30 07:33:34 51°19.644 2°58.421 -999 -999 -999 -999
2007-07-30 07:33:40 51°19.651 2°58.449 -999 -999 -999 -999
2007-07-30 07:33:45 51°19.659 2°58.47 -999 -999 -999 -999
2007-07-30 07:33:50 51°19.662 2°58.495 -999 -999 -999 -999
2007-07-30 07:33:54 51°19.669 2°58.512 -999 -999 -999 -999
2007-07-30 07:34:00 51°19.675 2°58.539 -999 -999 -999 -999
2007-07-30 07:34:05 51°19.682 2°58.561 -999 -999 -999 -999
2007-07-30 07:34:10 51°19.688 2°58.584 -999 -999 -999 -999
2007-07-30 07:34:15 51°19.694 2°58.606 -999 -999 -999 -999
2007-07-30 07:34:20 51°19.7 2°58.629 -999 -999 -999 -999
2007-07-30 07:34:25 51°19.706 2°58.651 -999 -999 -999 -999
2007-07-30 07:34:30 51°19.71 2°58.674 -999 -999 -999 -999
2007-07-30 07:34:34 51°19.714 2°58.692 -999 -999 -999 -999
2007-07-30 07:34:40 51°19.72 2°58.72 -999 -999 -999 -999
2007-07-30 07:34:45 51°19.725 2°58.743 -999 -999 -999 -999
2007-07-30 07:34:50 51°19.729 2°58.766 -999 -999 -999 -999
2007-07-30 07:34:54 51°19.732 2°58.785 -999 -999 -999 -999
2007-07-30 07:35:00 51°19.737 2°58.813 -999 -999 -999 -999
2007-07-30 07:35:05 51°19.742 2°58.837 -999 -999 -999 -999
2007-07-30 07:35:10 51°19.747 2°58.86 -999 -999 -999 -999
2007-07-30 07:35:14 51°19.752 2°58.878 -999 -999 -999 -999
2007-07-30 07:35:20 51°19.756 2°58.906 -999 -999 -999 -999
2007-07-30 07:35:25 51°19.761 2°58.93 -999 -999 -999 -999
2007-07-30 07:35:30 51°19.766 2°58.953 -999 -999 -999 -999
2007-07-30 07:35:35 51°19.769 2°58.977 -999 -999 -999 -999
2007-07-30 07:35:40 51°19.775 2°59 -999 -999 -999 -999
2007-07-30 07:35:45 51°19.777 2°59.024 -999 -999 -999 -999
2007-07-30 07:35:49 51°19.782 2°59.042 -999 -999 -999 -999
2007-07-30 07:35:54 51°19.786 2°59.066 -999 -999 -999 -999
2007-07-30 07:36:00 51°19.791 2°59.093 -999 -999 -999 -999
2007-07-30 07:36:05 51°19.796 2°59.117 -999 -999 -999 -999
2007-07-30 07:36:10 51°19.801 2°59.139 -999 -999 -999 -999
2007-07-30 07:36:14 51°19.804 2°59.158 -999 -999 -999 -999
2007-07-30 07:36:20 51°19.81 2°59.186 -999 -999 -999 -999
2007-07-30 07:36:25 51°19.813 2°59.209 -999 -999 -999 -999
2007-07-30 07:36:30 51°19.818 2°59.232 -999 -999 -999 -999
2007-07-30 07:36:35 51°19.822 2°59.255 -999 -999 -999 -999
2007-07-30 07:36:40 51°19.827 2°59.278 -999 -999 -999 -999
2007-07-30 07:36:45 51°19.832 2°59.301 -999 -999 -999 -999
2007-07-30 07:36:50 51°19.837 2°59.324 -999 -999 -999 -999
2007-07-30 07:36:54 51°19.839 2°59.343 -999 -999 -999 -999
2007-07-30 07:37:00 51°19.846 2°59.37 -999 -999 -999 -999
2007-07-30 07:37:05 51°19.85 2°59.393 -999 -999 -999 -999
2007-07-30 07:37:10 51°19.856 2°59.416 -999 -999 -999 -999
2007-07-30 07:37:14 51°19.86 2°59.434 -999 -999 -999 -999
2007-07-30 07:37:20 51°19.865 2°59.462 -999 -999 -999 -999
2007-07-30 07:37:25 51°19.87 2°59.486 -999 -999 -999 -999
2007-07-30 07:37:30 51°19.876 2°59.508 -999 -999 -999 -999
2007-07-30 07:37:35 51°19.88 2°59.531 -999 -999 -999 -999
2007-07-30 07:37:40 51°19.885 2°59.554 -999 -999 -999 -999
2007-07-30 07:37:45 51°19.889 2°59.578 -999 -999 -999 -999
2007-07-30 07:37:49 51°19.893 2°59.596 -999 -999 -999 -999
2007-07-30 07:37:55 51°19.899 2°59.623 -999 -999 -999 -999
2007-07-30 07:38:00 51°19.903 2°59.646 -999 -999 -999 -999
2007-07-30 07:38:05 51°19.908 2°59.669 -999 -999 -999 -999
2007-07-30 07:38:09 51°19.912 2°59.687 -999 -999 -999 -999
2007-07-30 07:38:14 51°19.917 2°59.71 -999 -999 -999 -999
2007-07-30 07:38:20 51°19.924 2°59.736 -999 -999 -999 -999
2007-07-30 07:38:25 51°19.926 2°59.76 -999 -999 -999 -999
2007-07-30 07:38:30 51°19.932 2°59.783 -999 -999 -999 -999
2007-07-30 07:38:34 51°19.935 2°59.802 -999 -999 -999 -999
2007-07-30 07:38:40 51°19.941 2°59.829 -999 -999 -999 -999
2007-07-30 07:38:45 51°19.946 2°59.851 -999 -999 -999 -999
2007-07-30 07:38:50 51°19.951 2°59.874 -999 -999 -999 -999
2007-07-30 07:38:55 51°19.955 2°59.897 -999 -999 -999 -999
2007-07-30 07:39:00 51°19.96 2°59.92 -999 -999 -999 -999
2007-07-30 07:39:05 51°19.966 2°59.943 -999 -999 -999 -999
2007-07-30 07:39:10 51°19.97 2°59.965 -999 -999 -999 -999
2007-07-30 07:39:14 51°19.973 2°59.984 -999 -999 -999 -999
2007-07-30 07:39:20 51°19.98 3°0.011 -999 -999 -999 -999
2007-07-30 07:39:25 51°19.984 3°0.034 -999 -999 -999 -999
2007-07-30 07:39:30 51°19.99 3°0.057 -999 -999 -999 -999
2007-07-30 07:39:34 51°19.992 3°0.077 -999 -999 -999 -999
2007-07-30 07:39:40 51°19.999 3°0.103 -999 -999 -999 -999
2007-07-30 07:39:45 51°20.002 3°0.127 -999 -999 -999 -999
2007-07-30 07:39:50 51°20.008 3°0.149 -999 -999 -999 -999
2007-07-30 07:39:55 51°20.012 3°0.173 -999 -999 -999 -999
2007-07-30 07:40:00 51°20.017 3°0.196 -999 -999 -999 -999
2007-07-30 07:40:05 51°20.021 3°0.22 -999 -999 -999 -999
2007-07-30 07:40:09 51°20.026 3°0.237 -999 -999 -999 -999
2007-07-30 07:40:15 51°20.031 3°0.265 -999 -999 -999 -999
2007-07-30 07:40:20 51°20.037 3°0.288 -999 -999 -999 -999
2007-07-30 07:40:25 51°20.041 3°0.312 -999 -999 -999 -999
2007-07-30 07:40:29 51°20.045 3°0.33 -999 -999 -999 -999
2007-07-30 07:40:34 51°20.049 3°0.353 -999 -999 -999 -999
2007-07-30 07:40:40 51°20.055 3°0.382 -999 -999 -999 -999
2007-07-30 07:40:45 51°20.06 3°0.405 -999 -999 -999 -999
2007-07-30 07:40:50 51°20.064 3°0.428 -999 -999 -999 -999
2007-07-30 07:40:55 51°20.07 3°0.451 -999 -999 -999 -999
2007-07-30 07:41:00 51°20.074 3°0.474 -999 -999 -999 -999
2007-07-30 07:41:05 51°20.08 3°0.497 -999 -999 -999 -999
2007-07-30 07:41:10 51°20.085 3°0.52 -999 -999 -999 -999
2007-07-30 07:41:14 51°20.089 3°0.539 -999 -999 -999 -999
2007-07-30 07:41:20 51°20.095 3°0.566 -999 -999 -999 -999
2007-07-30 07:41:25 51°20.1 3°0.589 -999 -999 -999 -999
2007-07-30 07:41:30 51°20.104 3°0.613 -999 -999 -999 -999
2007-07-30 07:41:34 51°20.109 3°0.631 -999 -999 -999 -999
2007-07-30 07:41:40 51°20.114 3°0.66 -999 -999 -999 -999
2007-07-30 07:41:45 51°20.12 3°0.683 -999 -999 -999 -999
2007-07-30 07:41:50 51°20.124 3°0.707 -999 -999 -999 -999
2007-07-30 07:41:54 51°20.129 3°0.725 -999 -999 -999 -999
2007-07-30 07:42:00 51°20.134 3°0.753 -999 -999 -999 -999
2007-07-30 07:42:05 51°20.138 3°0.777 -999 -999 -999 -999
2007-07-30 07:42:10 51°20.144 3°0.8 -999 -999 -999 -999
2007-07-30 07:42:15 51°20.148 3°0.824 -999 -999 -999 -999
2007-07-30 07:42:20 51°20.153 3°0.847 -999 -999 -999 -999
2007-07-30 07:42:25 51°20.158 3°0.87 -999 -999 -999 -999
2007-07-30 07:42:29 51°20.162 3°0.889 -999 -999 -999 -999
2007-07-30 07:42:35 51°20.168 3°0.917 -999 -999 -999 -999
2007-07-30 07:42:40 51°20.172 3°0.941 -999 -999 -999 -999
2007-07-30 07:42:45 51°20.178 3°0.964 -999 -999 -999 -999
2007-07-30 07:42:49 51°20.181 3°0.983 -999 -999 -999 -999
2007-07-30 07:42:54 51°20.187 3°1.006 -999 -999 -999 -999
2007-07-30 07:43:00 51°20.192 3°1.034 -999 -999 -999 -999
2007-07-30 07:43:05 51°20.198 3°1.057 -999 -999 -999 -999
2007-07-30 07:43:10 51°20.203 3°1.08 -999 -999 -999 -999
2007-07-30 07:43:15 51°20.208 3°1.104 -999 -999 -999 -999
2007-07-30 07:43:20 51°20.213 3°1.127 -999 -999 -999 -999
2007-07-30 07:43:25 51°20.219 3°1.15 -999 -999 -999 -999
2007-07-30 07:43:30 51°20.223 3°1.174 -999 -999 -999 -999
2007-07-30 07:43:34 51°20.228 3°1.192 -999 -999 -999 -999
2007-07-30 07:43:40 51°20.233 3°1.221 -999 -999 -999 -999
2007-07-30 07:43:45 51°20.239 3°1.244 -999 -999 -999 -999
2007-07-30 07:43:50 51°20.243 3°1.268 -999 -999 -999 -999
2007-07-30 07:43:54 51°20.249 3°1.285 -999 -999 -999 -999
2007-07-30 07:44:00 51°20.254 3°1.313 -999 -999 -999 -999
2007-07-30 07:44:05 51°20.261 3°1.336 -999 -999 -999 -999
2007-07-30 07:44:10 51°20.265 3°1.36 -999 -999 -999 -999
2007-07-30 07:44:15 51°20.272 3°1.382 -999 -999 -999 -999
2007-07-30 07:44:20 51°20.275 3°1.406 -999 -999 -999 -999
2007-07-30 07:44:25 51°20.282 3°1.428 -999 -999 -999 -999
2007-07-30 07:44:29 51°20.284 3°1.448 -999 -999 -999 -999
2007-07-30 07:44:35 51°20.29 3°1.476 -999 -999 -999 -999
2007-07-30 07:44:40 51°20.294 3°1.499 -999 -999 -999 -999
2007-07-30 07:44:45 51°20.299 3°1.522 -999 -999 -999 -999
2007-07-30 07:44:49 51°20.303 3°1.541 -999 -999 -999 -999
2007-07-30 07:44:55 51°20.309 3°1.569 -999 -999 -999 -999
2007-07-30 07:45:00 51°20.314 3°1.592 -999 -999 -999 -999
2007-07-30 07:45:05 51°20.32 3°1.615 -999 -999 -999 -999
2007-07-30 07:45:10 51°20.325 3°1.638 -999 -999 -999 -999
2007-07-30 07:45:14 51°20.329 3°1.657 -999 -999 -999 -999
2007-07-30 07:45:20 51°20.335 3°1.685 -999 -999 -999 -999
2007-07-30 07:45:25 51°20.34 3°1.709 -999 -999 -999 -999
2007-07-30 07:45:30 51°20.346 3°1.732 -999 -999 -999 -999
2007-07-30 07:45:34 51°20.349 3°1.75 -999 -999 -999 -999
2007-07-30 07:45:40 51°20.355 3°1.779 -999 -999 -999 -999
2007-07-30 07:45:45 51°20.361 3°1.802 -999 -999 -999 -999
2007-07-30 07:45:50 51°20.366 3°1.825 -999 -999 -999 -999
2007-07-30 07:45:54 51°20.37 3°1.844 -999 -999 -999 -999
2007-07-30 07:46:00 51°20.377 3°1.872 -999 -999 -999 -999
2007-07-30 07:46:05 51°20.383 3°1.896 -999 -999 -999 -999
2007-07-30 07:46:10 51°20.388 3°1.919 -999 -999 -999 -999
2007-07-30 07:46:14 51°20.392 3°1.938 -999 -999 -999 -999
2007-07-30 07:46:20 51°20.399 3°1.966 -999 -999 -999 -999
2007-07-30 07:46:25 51°20.404 3°1.989 -999 -999 -999 -999
2007-07-30 07:46:30 51°20.408 3°2.013 -999 -999 -999 -999
2007-07-30 07:46:35 51°20.414 3°2.036 -999 -999 -999 -999
2007-07-30 07:46:40 51°20.418 3°2.06 -999 -999 -999 -999
2007-07-30 07:46:45 51°20.423 3°2.083 -999 -999 -999 -999
2007-07-30 07:46:49 51°20.427 3°2.102 -999 -999 -999 -999
2007-07-30 07:46:55 51°20.433 3°2.131 -999 -999 -999 -999
2007-07-30 07:47:00 51°20.438 3°2.155 -999 -999 -999 -999
2007-07-30 07:47:05 51°20.442 3°2.179 -999 -999 -999 -999
2007-07-30 07:47:09 51°20.447 3°2.198 -999 -999 -999 -999
2007-07-30 07:47:14 51°20.452 3°2.221 -999 -999 -999 -999
2007-07-30 07:47:20 51°20.459 3°2.25 -999 -999 -999 -999
2007-07-30 07:47:25 51°20.463 3°2.273 -999 -999 -999 -999
2007-07-30 07:47:30 51°20.468 3°2.297 -999 -999 -999 -999
2007-07-30 07:47:35 51°20.474 3°2.32 -999 -999 -999 -999
2007-07-30 07:47:40 51°20.479 3°2.344 -999 -999 -999 -999
2007-07-30 07:47:45 51°20.484 3°2.367 -999 -999 -999 -999
2007-07-30 07:47:50 51°20.489 3°2.391 -999 -999 -999 -999
2007-07-30 07:47:54 51°20.493 3°2.41 -999 -999 -999 -999
2007-07-30 07:48:00 51°20.498 3°2.439 -999 -999 -999 -999
2007-07-30 07:48:05 51°20.504 3°2.462 -999 -999 -999 -999
2007-07-30 07:48:10 51°20.508 3°2.486 -999 -999 -999 -999
2007-07-30 07:48:14 51°20.513 3°2.505 -999 -999 -999 -999
2007-07-30 07:48:20 51°20.519 3°2.533 -999 -999 -999 -999
2007-07-30 07:48:25 51°20.525 3°2.556 -999 -999 -999 -999
2007-07-30 07:48:30 51°20.529 3°2.58 -999 -999 -999 -999
2007-07-30 07:48:34 51°20.534 3°2.598 -999 -999 -999 -999
2007-07-30 07:48:40 51°20.541 3°2.627 -999 -999 -999 -999
2007-07-30 07:48:45 51°20.545 3°2.651 -999 -999 -999 -999
2007-07-30 07:48:50 51°20.55 3°2.674 -999 -999 -999 -999
2007-07-30 07:48:55 51°20.555 3°2.698 -999 -999 -999 -999
2007-07-30 07:49:00 51°20.56 3°2.722 -999 -999 -999 -999
2007-07-30 07:49:05 51°20.565 3°2.745 -999 -999 -999 -999
2007-07-30 07:49:09 51°20.568 3°2.764 -999 -999 -999 -999
2007-07-30 07:49:15 51°20.574 3°2.792 -999 -999 -999 -999
2007-07-30 07:49:20 51°20.58 3°2.815 -999 -999 -999 -999
2007-07-30 07:49:25 51°20.584 3°2.838 -999 -999 -999 -999
2007-07-30 07:49:29 51°20.589 3°2.857 -999 -999 -999 -999
2007-07-30 07:49:34 51°20.594 3°2.88 -999 -999 -999 -999
2007-07-30 07:49:40 51°20.601 3°2.908 -999 -999 -999 -999
2007-07-30 07:49:45 51°20.606 3°2.931 -999 -999 -999 -999
2007-07-30 07:49:50 51°20.611 3°2.954 -999 -999 -999 -999
2007-07-30 07:49:55 51°20.617 3°2.976 -999 -999 -999 -999
2007-07-30 07:50:00 51°20.62 3°3.001 -999 -999 -999 -999
2007-07-30 07:50:05 51°20.627 3°3.022 -999 -999 -999 -999
2007-07-30 07:50:10 51°20.63 3°3.047 -999 -999 -999 -999
2007-07-30 07:50:14 51°20.636 3°3.065 -999 -999 -999 -999
2007-07-30 07:50:20 51°20.64 3°3.093 -999 -999 -999 -999
2007-07-30 07:50:25 51°20.646 3°3.115 -999 -999 -999 -999
2007-07-30 07:50:30 51°20.651 3°3.139 -999 -999 -999 -999
2007-07-30 07:50:34 51°20.655 3°3.157 -999 -999 -999 -999
2007-07-30 07:50:40 51°20.661 3°3.185 -999 -999 -999 -999
2007-07-30 07:50:45 51°20.666 3°3.208 -999 -999 -999 -999
2007-07-30 07:50:50 51°20.671 3°3.231 -999 -999 -999 -999
2007-07-30 07:50:55 51°20.676 3°3.254 -999 -999 -999 -999
2007-07-30 07:51:00 51°20.681 3°3.277 -999 -999 -999 -999
2007-07-30 07:51:05 51°20.687 3°3.3 -999 -999 -999 -999
2007-07-30 07:51:09 51°20.69 3°3.32 -999 -999 -999 -999
2007-07-30 07:51:15 51°20.697 3°3.347 -999 -999 -999 -999
2007-07-30 07:51:20 51°20.702 3°3.37 -999 -999 -999 -999
2007-07-30 07:51:25 51°20.707 3°3.393 -999 -999 -999 -999
2007-07-30 07:51:29 51°20.711 3°3.412 -999 -999 -999 -999
2007-07-30 07:51:35 51°20.718 3°3.44 -999 -999 -999 -999
2007-07-30 07:51:40 51°20.724 3°3.463 -999 -999 -999 -999
2007-07-30 07:51:45 51°20.728 3°3.486 -999 -999 -999 -999
2007-07-30 07:51:50 51°20.733 3°3.509 -999 -999 -999 -999
2007-07-30 07:51:54 51°20.737 3°3.528 -999 -999 -999 -999
2007-07-30 07:52:00 51°20.743 3°3.557 -999 -999 -999 -999
2007-07-30 07:52:05 51°20.747 3°3.58 -999 -999 -999 -999
2007-07-30 07:52:10 51°20.752 3°3.603 -999 -999 -999 -999
2007-07-30 07:52:14 51°20.756 3°3.622 -999 -999 -999 -999
2007-07-30 07:52:20 51°20.761 3°3.651 -999 -999 -999 -999
2007-07-30 07:52:25 51°20.765 3°3.675 -999 -999 -999 -999
2007-07-30 07:52:30 51°20.769 3°3.698 -999 -999 -999 -999
2007-07-30 07:52:34 51°20.771 3°3.718 -999 -999 -999 -999
2007-07-30 07:52:40 51°20.777 3°3.747 -999 -999 -999 -999
2007-07-30 07:52:45 51°20.78 3°3.771 -999 -999 -999 -999
2007-07-30 07:52:50 51°20.784 3°3.795 -999 -999 -999 -999
2007-07-30 07:52:54 51°20.787 3°3.815 -999 -999 -999 -999
2007-07-30 07:53:00 51°20.792 3°3.843 -999 -999 -999 -999
2007-07-30 07:53:05 51°20.795 3°3.868 -999 -999 -999 -999
2007-07-30 07:53:10 51°20.8 3°3.891 -999 -999 -999 -999
2007-07-30 07:53:15 51°20.802 3°3.915 -999 -999 -999 -999
2007-07-30 07:53:20 51°20.807 3°3.939 -999 -999 -999 -999
2007-07-30 07:53:25 51°20.81 3°3.963 -999 -999 -999 -999
2007-07-30 07:53:29 51°20.812 3°3.983 -999 -999 -999 -999
2007-07-30 07:53:35 51°20.816 3°4.012 -999 -999 -999 -999
2007-07-30 07:53:40 51°20.82 3°4.036 -999 -999 -999 -999
2007-07-30 07:53:45 51°20.823 3°4.06 -999 -999 -999 -999
2007-07-30 07:53:49 51°20.826 3°4.079 -999 -999 -999 -999
2007-07-30 07:53:54 51°20.831 3°4.103 -999 -999 -999 -999
2007-07-30 07:54:00 51°20.835 3°4.132 -999 -999 -999 -999
2007-07-30 07:54:05 51°20.84 3°4.156 -999 -999 -999 -999
2007-07-30 07:54:10 51°20.844 3°4.18 -999 -999 -999 -999
2007-07-30 07:54:15 51°20.847 3°4.205 -999 -999 -999 -999
2007-07-30 07:54:20 51°20.853 3°4.228 -999 -999 -999 -999
2007-07-30 07:54:25 51°20.856 3°4.252 -999 -999 -999 -999
2007-07-30 07:54:30 51°20.86 3°4.275 -999 -999 -999 -999
2007-07-30 07:54:34 51°20.864 3°4.295 -999 -999 -999 -999
2007-07-30 07:54:40 51°20.869 3°4.324 -999 -999 -999 -999
2007-07-30 07:54:45 51°20.872 3°4.348 -999 -999 -999 -999
2007-07-30 07:54:50 51°20.877 3°4.371 -999 -999 -999 -999
2007-07-30 07:54:54 51°20.879 3°4.391 -999 -999 -999 -999
2007-07-30 07:55:00 51°20.883 3°4.42 -999 -999 -999 -999
2007-07-30 07:55:05 51°20.887 3°4.444 -999 -999 -999 -999
2007-07-30 07:55:10 51°20.891 3°4.469 -999 -999 -999 -999
2007-07-30 07:55:14 51°20.893 3°4.488 -999 -999 -999 -999
2007-07-30 07:55:20 51°20.898 3°4.517 -999 -999 -999 -999
2007-07-30 07:55:25 51°20.901 3°4.541 -999 -999 -999 -999
2007-07-30 07:55:30 51°20.906 3°4.564 -999 -999 -999 -999
2007-07-30 07:55:35 51°20.908 3°4.59 -999 -999 -999 -999
2007-07-30 07:55:40 51°20.913 3°4.613 -999 -999 -999 -999
2007-07-30 07:55:45 51°20.916 3°4.637 -999 -999 -999 -999
2007-07-30 07:55:49 51°20.919 3°4.656 -999 -999 -999 -999
2007-07-30 07:55:54 51°20.922 3°4.681 -999 -999 -999 -999
2007-07-30 07:56:00 51°20.928 3°4.709 -999 -999 -999 -999
2007-07-30 07:56:05 51°20.93 3°4.734 -999 -999 -999 -999
2007-07-30 07:56:10 51°20.935 3°4.758 -999 -999 -999 -999
2007-07-30 07:56:15 51°20.938 3°4.782 -999 -999 -999 -999
2007-07-30 07:56:20 51°20.941 3°4.806 -999 -999 -999 -999
2007-07-30 07:56:25 51°20.945 3°4.831 -999 -999 -999 -999
2007-07-30 07:56:29 51°20.948 3°4.851 -999 -999 -999 -999
2007-07-30 07:56:34 51°20.951 3°4.875 -999 -999 -999 -999
2007-07-30 07:56:40 51°20.956 3°4.904 -999 -999 -999 -999
2007-07-30 07:56:45 51°20.959 3°4.929 -999 -999 -999 -999
2007-07-30 07:56:50 51°20.963 3°4.953 -999 -999 -999 -999
2007-07-30 07:56:54 51°20.965 3°4.973 -999 -999 -999 -999
2007-07-30 07:57:00 51°20.971 3°5.001 -999 -999 -999 -999
2007-07-30 07:57:05 51°20.973 3°5.027 -999 -999 -999 -999
2007-07-30 07:57:10 51°20.978 3°5.051 -999 -999 -999 -999
2007-07-30 07:57:14 51°20.98 3°5.07 -999 -999 -999 -999
2007-07-30 07:57:20 51°20.984 3°5.099 -999 -999 -999 -999
2007-07-30 07:57:25 51°20.989 3°5.123 -999 -999 -999 -999
2007-07-30 07:57:30 51°20.991 3°5.148 -999 -999 -999 -999
2007-07-30 07:57:34 51°20.996 3°5.167 -999 -999 -999 -999
2007-07-30 07:57:40 51°20.999 3°5.196 -999 -999 -999 -999
2007-07-30 07:57:45 51°21.002 3°5.22 -999 -999 -999 -999
2007-07-30 07:57:50 51°21.006 3°5.244 -999 -999 -999 -999
2007-07-30 07:57:55 51°21.009 3°5.268 -999 -999 -999 -999
2007-07-30 07:58:00 51°21.013 3°5.292 -999 -999 -999 -999
2007-07-30 07:58:05 51°21.015 3°5.317 -999 -999 -999 -999
2007-07-30 07:58:09 51°21.019 3°5.336 -999 -999 -999 -999
2007-07-30 07:58:14 51°21.022 3°5.36 -999 -999 -999 -999
2007-07-30 07:58:20 51°21.026 3°5.389 -999 -999 -999 -999
2007-07-30 07:58:25 51°21.031 3°5.413 -999 -999 -999 -999
2007-07-30 07:58:30 51°21.033 3°5.438 -999 -999 -999 -999
2007-07-30 07:58:34 51°21.036 3°5.457 -999 -999 -999 -999
2007-07-30 07:58:40 51°21.042 3°5.486 -999 -999 -999 -999
2007-07-30 07:58:45 51°21.045 3°5.51 -999 -999 -999 -999
2007-07-30 07:58:49 51°21.048 3°5.529 -999 -999 -999 -999
2007-07-30 07:58:54 51°21.051 3°5.553 -999 -999 -999 -999
2007-07-30 07:58:59 51°21.055 3°5.578 -999 -999 -999 -999
2007-07-30 07:59:05 51°21.059 3°5.607 -999 -999 -999 -999
2007-07-30 07:59:10 51°21.063 3°5.631 -999 -999 -999 -999
2007-07-30 07:59:14 51°21.066 3°5.65 -999 -999 -999 -999
2007-07-30 07:59:20 51°21.07 3°5.679 -999 -999 -999 -999
2007-07-30 07:59:25 51°21.073 3°5.704 -999 -999 -999 -999
2007-07-30 07:59:30 51°21.077 3°5.728 -999 -999 -999 -999
2007-07-30 07:59:34 51°21.079 3°5.748 -999 -999 -999 -999
2007-07-30 07:59:40 51°21.085 3°5.775 -999 -999 -999 -999
2007-07-30 07:59:45 51°21.087 3°5.8 -999 -999 -999 -999
2007-07-30 07:59:50 51°21.093 3°5.823 -999 -999 -999 -999
2007-07-30 07:59:54 51°21.095 3°5.842 -999 -999 -999 -999
2007-07-30 08:00:00 51°21.102 3°5.87 -999 -999 -999 -999
2007-07-30 08:00:05 51°21.104 3°5.894 -999 -999 -999 -999
2007-07-30 08:00:10 51°21.109 3°5.918 -999 -999 -999 -999
2007-07-30 08:00:15 51°21.114 3°5.941 -999 -999 -999 -999
2007-07-30 08:00:20 51°21.118 3°5.965 -999 -999 -999 -999
2007-07-30 08:00:25 51°21.122 3°5.989 -999 -999 -999 -999
2007-07-30 08:00:29 51°21.125 3°6.008 -999 -999 -999 -999
2007-07-30 08:00:34 51°21.13 3°6.032 -999 -999 -999 -999
2007-07-30 08:00:40 51°21.135 3°6.061 -999 -999 -999 -999
2007-07-30 08:00:45 51°21.14 3°6.084 -999 -999 -999 -999
2007-07-30 08:00:50 51°21.144 3°6.108 -999 -999 -999 -999
2007-07-30 08:00:54 51°21.147 3°6.128 -999 -999 -999 -999
2007-07-30 08:01:00 51°21.152 3°6.156 -999 -999 -999 -999
2007-07-30 08:01:05 51°21.156 3°6.18 -999 -999 -999 -999
2007-07-30 08:01:09 51°21.16 3°6.199 -999 -999 -999 -999
2007-07-30 08:01:14 51°21.164 3°6.223 -999 -999 -999 -999
2007-07-30 08:01:20 51°21.17 3°6.252 -999 -999 -999 -999
2007-07-30 08:01:25 51°21.174 3°6.276 -999 -999 -999 -999
2007-07-30 08:01:30 51°21.178 3°6.3 -999 -999 -999 -999
2007-07-30 08:01:34 51°21.182 3°6.319 -999 -999 -999 -999
2007-07-30 08:01:40 51°21.186 3°6.348 -999 -999 -999 -999
2007-07-30 08:01:45 51°21.191 3°6.372 -999 -999 -999 -999
2007-07-30 08:01:50 51°21.195 3°6.396 -999 -999 -999 -999
2007-07-30 08:01:54 51°21.199 3°6.415 -999 -999 -999 -999
2007-07-30 08:02:00 51°21.204 3°6.444 -999 -999 -999 -999
2007-07-30 08:02:05 51°21.207 3°6.468 -999 -999 -999 -999
2007-07-30 08:02:10 51°21.212 3°6.492 -999 -999 -999 -999
2007-07-30 08:02:15 51°21.213 3°6.518 -999 -999 -999 -999
2007-07-30 08:02:20 51°21.217 3°6.542 -999 -999 -999 -999
2007-07-30 08:02:25 51°21.218 3°6.567 -999 -999 -999 -999
2007-07-30 08:02:30 51°21.221 3°6.592 -999 -999 -999 -999
2007-07-30 08:02:35 51°21.223 3°6.617 -999 -999 -999 -999
2007-07-30 08:02:40 51°21.225 3°6.642 -999 -999 -999 -999
2007-07-30 08:02:45 51°21.227 3°6.667 -999 -999 -999 -999
2007-07-30 08:02:50 51°21.229 3°6.692 -999 -999 -999 -999
2007-07-30 08:02:55 51°21.231 3°6.717 -999 -999 -999 -999
2007-07-30 08:03:00 51°21.233 3°6.742 -999 -999 -999 -999
2007-07-30 08:03:05 51°21.235 3°6.766 -999 -999 -999 -999
2007-07-30 08:03:10 51°21.236 3°6.792 -999 -999 -999 -999
2007-07-30 08:03:14 51°21.239 3°6.812 -999 -999 -999 -999
2007-07-30 08:03:20 51°21.241 3°6.842 -999 -999 -999 -999
2007-07-30 08:03:25 51°21.245 3°6.866 -999 -999 -999 -999
2007-07-30 08:03:29 51°21.245 3°6.887 -999 -999 -999 -999
2007-07-30 08:03:34 51°21.249 3°6.911 -999 -999 -999 -999
2007-07-30 08:03:40 51°21.25 3°6.942 -999 -999 -999 -999
2007-07-30 08:03:45 51°21.253 3°6.966 -999 -999 -999 -999
2007-07-30 08:03:50 51°21.258 3°6.99 -999 -999 -999 -999
2007-07-30 08:03:55 51°21.262 3°7.015 -999 -999 -999 -999
2007-07-30 08:04:00 51°21.266 3°7.038 -999 -999 -999 -999
2007-07-30 08:04:05 51°21.272 3°7.062 -999 -999 -999 -999
2007-07-30 08:04:10 51°21.277 3°7.085 -999 -999 -999 -999
2007-07-30 08:04:14 51°21.282 3°7.104 -999 -999 -999 -999
2007-07-30 08:04:20 51°21.289 3°7.132 -999 -999 -999 -999
2007-07-30 08:04:25 51°21.295 3°7.155 -999 -999 -999 -999
2007-07-30 08:04:30 51°21.301 3°7.178 -999 -999 -999 -999
2007-07-30 08:04:35 51°21.308 3°7.2 -999 -999 -999 -999
2007-07-30 08:04:40 51°21.314 3°7.223 -999 -999 -999 -999
2007-07-30 08:04:45 51°21.32 3°7.246 -999 -999 -999 -999
2007-07-30 08:04:49 51°21.326 3°7.263 -999 -999 -999 -999
2007-07-30 08:04:55 51°21.333 3°7.291 -999 -999 -999 -999
2007-07-30 08:05:00 51°21.341 3°7.313 -999 -999 -999 -999
2007-07-30 08:05:05 51°21.347 3°7.335 -999 -999 -999 -999
2007-07-30 08:05:10 51°21.354 3°7.358 -999 -999 -999 -999
2007-07-30 08:05:15 51°21.36 3°7.38 -999 -999 -999 -999
2007-07-30 08:05:20 51°21.366 3°7.404 -999 -999 -999 -999
2007-07-30 08:05:25 51°21.371 3°7.427 -999 -999 -999 -999
2007-07-30 08:05:30 51°21.376 3°7.451 -999 -999 -999 -999
2007-07-30 08:05:34 51°21.378 3°7.471 -999 -999 -999 -999
2007-07-30 08:05:40 51°21.381 3°7.5 -999 -999 -999 -999
2007-07-30 08:05:45 51°21.384 3°7.525 -999 -999 -999 -999
2007-07-30 08:05:49 51°21.384 3°7.545 -999 -999 -999 -999
2007-07-30 08:05:54 51°21.385 3°7.57 -999 -999 -999 -999
2007-07-30 08:06:00 51°21.385 3°7.601 -999 -999 -999 -999
2007-07-30 08:06:05 51°21.386 3°7.626 -999 -999 -999 -999
2007-07-30 08:06:10 51°21.389 3°7.65 -999 -999 -999 -999
2007-07-30 08:06:15 51°21.39 3°7.675 -999 -999 -999 -999
2007-07-30 08:06:20 51°21.393 3°7.699 -999 -999 -999 -999
2007-07-30 08:06:25 51°21.396 3°7.724 -999 -999 -999 -999
2007-07-30 08:06:30 51°21.402 3°7.747 -999 -999 -999 -999
2007-07-30 08:06:34 51°21.406 3°7.765 -999 -999 -999 -999
2007-07-30 08:06:40 51°21.413 3°7.792 -999 -999 -999 -999
2007-07-30 08:06:45 51°21.419 3°7.815 -999 -999 -999 -999
2007-07-30 08:06:50 51°21.425 3°7.837 -999 -999 -999 -999
2007-07-30 08:06:55 51°21.432 3°7.859 -999 -999 -999 -999
2007-07-30 08:07:00 51°21.438 3°7.882 -999 -999 -999 -999
2007-07-30 08:07:05 51°21.444 3°7.904 -999 -999 -999 -999
2007-07-30 08:07:09 51°21.449 3°7.922 -999 -999 -999 -999
2007-07-30 08:07:15 51°21.458 3°7.948 -999 -999 -999 -999
2007-07-30 08:07:20 51°21.465 3°7.971 -999 -999 -999 -999
2007-07-30 08:07:25 51°21.472 3°7.992 -999 -999 -999 -999
2007-07-30 08:07:30 51°21.479 3°8.015 -999 -999 -999 -999
2007-07-30 08:07:35 51°21.485 3°8.038 -999 -999 -999 -999
2007-07-30 08:07:40 51°21.492 3°8.06 -999 -999 -999 -999
2007-07-30 08:07:45 51°21.499 3°8.083 -999 -999 -999 -999
2007-07-30 08:07:50 51°21.505 3°8.106 -999 -999 -999 -999
2007-07-30 08:07:54 51°21.51 3°8.124 -999 -999 -999 -999
2007-07-30 08:08:00 51°21.517 3°8.152 -999 -999 -999 -999
2007-07-30 08:08:05 51°21.524 3°8.175 -999 -999 -999 -999
2007-07-30 08:08:09 51°21.528 3°8.193 -999 -999 -999 -999
2007-07-30 08:08:14 51°21.535 3°8.216 -999 -999 -999 -999
2007-07-30 08:08:20 51°21.542 3°8.244 -999 -999 -999 -999
2007-07-30 08:08:25 51°21.548 3°8.267 -999 -999 -999 -999
2007-07-30 08:08:30 51°21.554 3°8.29 -999 -999 -999 -999
2007-07-30 08:08:35 51°21.56 3°8.313 -999 -999 -999 -999
2007-07-30 08:08:40 51°21.567 3°8.336 -999 -999 -999 -999
2007-07-30 08:08:45 51°21.573 3°8.36 -999 -999 -999 -999
2007-07-30 08:08:50 51°21.579 3°8.383 -999 -999 -999 -999
2007-07-30 08:08:54 51°21.584 3°8.401 -999 -999 -999 -999
2007-07-30 08:09:00 51°21.592 3°8.428 -999 -999 -999 -999
2007-07-30 08:09:05 51°21.598 3°8.451 -999 -999 -999 -999
2007-07-30 08:09:10 51°21.604 3°8.475 -999 -999 -999 -999
2007-07-30 08:09:15 51°21.611 3°8.498 -999 -999 -999 -999
2007-07-30 08:09:20 51°21.617 3°8.521 -999 -999 -999 -999
2007-07-30 08:09:25 51°21.624 3°8.544 -999 -999 -999 -999
2007-07-30 08:09:29 51°21.628 3°8.563 -999 -999 -999 -999
2007-07-30 08:09:35 51°21.637 3°8.59 -999 -999 -999 -999
2007-07-30 08:09:40 51°21.642 3°8.614 -999 -999 -999 -999
2007-07-30 08:09:45 51°21.648 3°8.636 -999 -999 -999 -999
2007-07-30 08:09:50 51°21.654 3°8.66 -999 -999 -999 -999
2007-07-30 08:09:55 51°21.661 3°8.682 -999 -999 -999 -999
2007-07-30 08:10:00 51°21.667 3°8.705 -999 -999 -999 -999
2007-07-30 08:10:05 51°21.673 3°8.728 -999 -999 -999 -999
2007-07-30 08:10:10 51°21.68 3°8.75 -999 -999 -999 -999
2007-07-30 08:10:14 51°21.685 3°8.768 -999 -999 -999 -999
2007-07-30 08:10:20 51°21.694 3°8.795 -999 -999 -999 -999
2007-07-30 08:10:25 51°21.701 3°8.817 -999 -999 -999 -999
2007-07-30 08:10:29 51°21.706 3°8.836 -999 -999 -999 -999
2007-07-30 08:10:34 51°21.713 3°8.858 -999 -999 -999 -999
2007-07-30 08:10:40 51°21.721 3°8.886 -999 -999 -999 -999
2007-07-30 08:10:45 51°21.729 3°8.908 -999 -999 -999 -999
2007-07-30 08:10:50 51°21.736 3°8.931 -999 -999 -999 -999
2007-07-30 08:10:55 51°21.743 3°8.954 -999 -999 -999 -999
2007-07-30 08:11:00 51°21.75 3°8.976 -999 -999 -999 -999
2007-07-30 08:11:05 51°21.757 3°8.999 -999 -999 -999 -999
2007-07-30 08:11:10 51°21.764 3°9.021 -999 -999 -999 -999
2007-07-30 08:11:14 51°21.771 3°9.039 -999 -999 -999 -999
2007-07-30 08:11:20 51°21.779 3°9.066 -999 -999 -999 -999
2007-07-30 08:11:25 51°21.787 3°9.088 -999 -999 -999 -999
2007-07-30 08:11:30 51°21.794 3°9.111 -999 -999 -999 -999
2007-07-30 08:11:35 51°21.801 3°9.134 -999 -999 -999 -999
2007-07-30 08:11:40 51°21.808 3°9.157 -999 -999 -999 -999
2007-07-30 08:11:45 51°21.816 3°9.179 -999 -999 -999 -999
2007-07-30 08:11:49 51°21.822 3°9.198 -999 -999 -999 -999
2007-07-30 08:11:55 51°21.831 3°9.224 -999 -999 -999 -999
2007-07-30 08:12:00 51°21.838 3°9.248 -999 -999 -999 -999
2007-07-30 08:12:05 51°21.846 3°9.27 -999 -999 -999 -999
2007-07-30 08:12:10 51°21.852 3°9.293 -999 -999 -999 -999
2007-07-30 08:12:15 51°21.86 3°9.315 -999 -999 -999 -999
2007-07-30 08:12:20 51°21.867 3°9.338 -999 -999 -999 -999
2007-07-30 08:12:25 51°21.875 3°9.361 -999 -999 -999 -999
2007-07-30 08:12:30 51°21.882 3°9.383 -999 -999 -999 -999
2007-07-30 08:12:34 51°21.887 3°9.403 -999 -999 -999 -999
2007-07-30 08:12:40 51°21.897 3°9.429 -999 -999 -999 -999
2007-07-30 08:12:45 51°21.903 3°9.453 -999 -999 -999 -999
2007-07-30 08:12:49 51°21.91 3°9.47 -999 -999 -999 -999
2007-07-30 08:12:54 51°21.917 3°9.494 -999 -999 -999 -999
2007-07-30 08:13:00 51°21.926 3°9.521 -999 -999 -999 -999
2007-07-30 08:13:05 51°21.932 3°9.545 -999 -999 -999 -999
2007-07-30 08:13:10 51°21.94 3°9.567 -999 -999 -999 -999
2007-07-30 08:13:15 51°21.947 3°9.591 -999 -999 -999 -999
2007-07-30 08:13:20 51°21.955 3°9.614 -999 -999 -999 -999
2007-07-30 08:13:25 51°21.962 3°9.637 -999 -999 -999 -999
2007-07-30 08:13:30 51°21.97 3°9.659 -999 -999 -999 -999
2007-07-30 08:13:34 51°21.975 3°9.678 -999 -999 -999 -999
2007-07-30 08:13:40 51°21.986 3°9.705 -999 -999 -999 -999
2007-07-30 08:13:45 51°21.992 3°9.728 -999 -999 -999 -999
2007-07-30 08:13:50 51°22 3°9.751 -999 -999 -999 -999
2007-07-30 08:13:55 51°22.007 3°9.774 -999 -999 -999 -999
2007-07-30 08:14:00 51°22.014 3°9.797 -999 -999 -999 -999
2007-07-30 08:14:05 51°22.021 3°9.821 -999 -999 -999 -999
2007-07-30 08:14:10 51°22.028 3°9.845 -999 -999 -999 -999
2007-07-30 08:14:15 51°22.035 3°9.868 -999 -999 -999 -999
2007-07-30 08:14:20 51°22.042 3°9.892 -999 -999 -999 -999
2007-07-30 08:14:25 51°22.048 3°9.916 -999 -999 -999 -999
2007-07-30 08:14:30 51°22.055 3°9.939 -999 -999 -999 -999
2007-07-30 08:14:35 51°22.062 3°9.963 -999 -999 -999 -999
2007-07-30 08:14:40 51°22.068 3°9.988 -999 -999 -999 -999
2007-07-30 08:14:45 51°22.074 3°10.011 -999 -999 -999 -999
2007-07-30 08:14:50 51°22.081 3°10.035 -999 -999 -999 -999
2007-07-30 08:14:54 51°22.087 3°10.054 -999 -999 -999 -999
2007-07-30 08:15:00 51°22.095 3°10.083 -999 -999 -999 -999
2007-07-30 08:15:05 51°22.102 3°10.106 -999 -999 -999 -999
2007-07-30 08:15:10 51°22.108 3°10.131 -999 -999 -999 -999
2007-07-30 08:15:14 51°22.114 3°10.149 -999 -999 -999 -999
2007-07-30 08:15:20 51°22.122 3°10.178 -999 -999 -999 -999
2007-07-30 08:15:25 51°22.129 3°10.201 -999 -999 -999 -999
2007-07-30 08:15:30 51°22.136 3°10.225 -999 -999 -999 -999
2007-07-30 08:15:35 51°22.143 3°10.249 -999 -999 -999 -999
2007-07-30 08:15:40 51°22.15 3°10.274 -999 -999 -999 -999
2007-07-30 08:15:45 51°22.157 3°10.297 -999 -999 -999 -999
2007-07-30 08:15:50 51°22.165 3°10.321 -999 -999 -999 -999
2007-07-30 08:15:54 51°22.17 3°10.34 -999 -999 -999 -999
2007-07-30 08:16:00 51°22.179 3°10.369 -999 -999 -999 -999
2007-07-30 08:16:05 51°22.186 3°10.393 -999 -999 -999 -999
2007-07-30 08:16:10 51°22.193 3°10.417 -999 -999 -999 -999
2007-07-30 08:16:15 51°22.2 3°10.44 -999 -999 -999 -999
2007-07-30 08:16:20 51°22.207 3°10.464 -999 -999 -999 -999
2007-07-30 08:16:25 51°22.214 3°10.488 -999 -999 -999 -999
2007-07-30 08:16:30 51°22.221 3°10.512 -999 -999 -999 -999
2007-07-30 08:16:35 51°22.228 3°10.536 -999 -999 -999 -999
2007-07-30 08:16:40 51°22.235 3°10.56 -999 -999 -999 -999
2007-07-30 08:16:45 51°22.242 3°10.584 -999 -999 -999 -999
2007-07-30 08:16:50 51°22.249 3°10.609 -999 -999 -999 -999
2007-07-30 08:16:55 51°22.256 3°10.633 -999 -999 -999 -999
2007-07-30 08:17:00 51°22.264 3°10.657 -999 -999 -999 -999
2007-07-30 08:17:05 51°22.271 3°10.682 -999 -999 -999 -999
2007-07-30 08:17:10 51°22.279 3°10.705 -999 -999 -999 -999
2007-07-30 08:17:15 51°22.286 3°10.73 -999 -999 -999 -999
2007-07-30 08:17:20 51°22.294 3°10.754 -999 -999 -999 -999
2007-07-30 08:17:25 51°22.302 3°10.779 -999 -999 -999 -999
2007-07-30 08:17:30 51°22.31 3°10.803 -999 -999 -999 -999
2007-07-30 08:17:35 51°22.317 3°10.829 -999 -999 -999 -999
2007-07-30 08:17:40 51°22.325 3°10.853 -999 -999 -999 -999
2007-07-30 08:17:45 51°22.331 3°10.878 -999 -999 -999 -999
2007-07-30 08:17:50 51°22.339 3°10.902 -999 -999 -999 -999
2007-07-30 08:17:55 51°22.346 3°10.927 -999 -999 -999 -999
2007-07-30 08:18:00 51°22.353 3°10.952 -999 -999 -999 -999
2007-07-30 08:18:05 51°22.361 3°10.976 -999 -999 -999 -999
2007-07-30 08:18:10 51°22.368 3°11 -999 -999 -999 -999
2007-07-30 08:18:14 51°22.374 3°11.019 -999 -999 -999 -999
2007-07-30 08:18:20 51°22.382 3°11.049 -999 -999 -999 -999
2007-07-30 08:18:25 51°22.389 3°11.074 -999 -999 -999 -999
2007-07-30 08:18:30 51°22.397 3°11.097 -999 -999 -999 -999
2007-07-30 08:18:35 51°22.403 3°11.122 -999 -999 -999 -999
2007-07-30 08:18:40 51°22.411 3°11.146 -999 -999 -999 -999
2007-07-30 08:18:45 51°22.418 3°11.17 -999 -999 -999 -999
2007-07-30 08:18:49 51°22.424 3°11.19 -999 -999 -999 -999
2007-07-30 08:18:54 51°22.432 3°11.214 -999 -999 -999 -999
2007-07-30 08:19:00 51°22.44 3°11.243 -999 -999 -999 -999
2007-07-30 08:19:05 51°22.447 3°11.268 -999 -999 -999 -999
2007-07-30 08:19:10 51°22.455 3°11.293 -999 -999 -999 -999
2007-07-30 08:19:14 51°22.462 3°11.312 -999 -999 -999 -999
2007-07-30 08:19:20 51°22.47 3°11.341 -999 -999 -999 -999
2007-07-30 08:19:25 51°22.478 3°11.365 -999 -999 -999 -999
2007-07-30 08:19:29 51°22.485 3°11.385 -999 -999 -999 -999
2007-07-30 08:19:34 51°22.492 3°11.409 -999 -999 -999 -999
2007-07-30 08:19:40 51°22.501 3°11.438 -999 -999 -999 -999
2007-07-30 08:19:45 51°22.509 3°11.461 -999 -999 -999 -999
2007-07-30 08:19:50 51°22.515 3°11.486 -999 -999 -999 -999
2007-07-30 08:19:55 51°22.524 3°11.51 -999 -999 -999 -999
2007-07-30 08:20:00 51°22.531 3°11.533 -999 -999 -999 -999
2007-07-30 08:20:05 51°22.538 3°11.557 -999 -999 -999 -999
2007-07-30 08:20:10 51°22.545 3°11.582 -999 -999 -999 -999
2007-07-30 08:20:15 51°22.553 3°11.605 -999 -999 -999 -999
2007-07-30 08:20:20 51°22.56 3°11.629 -999 -999 -999 -999
2007-07-30 08:20:25 51°22.567 3°11.653 -999 -999 -999 -999
2007-07-30 08:20:30 51°22.576 3°11.675 -999 -999 -999 -999
2007-07-30 08:20:34 51°22.581 3°11.695 -999 -999 -999 -999
2007-07-30 08:20:40 51°22.591 3°11.722 -999 -999 -999 -999
2007-07-30 08:20:45 51°22.597 3°11.746 -999 -999 -999 -999
2007-07-30 08:20:50 51°22.605 3°11.769 -999 -999 -999 -999
2007-07-30 08:20:55 51°22.611 3°11.793 -999 -999 -999 -999
2007-07-30 08:21:00 51°22.619 3°11.816 -999 -999 -999 -999
2007-07-30 08:21:05 51°22.626 3°11.839 -999 -999 -999 -999
2007-07-30 08:21:09 51°22.631 3°11.858 -999 -999 -999 -999
2007-07-30 08:21:15 51°22.64 3°11.886 -999 -999 -999 -999
2007-07-30 08:21:20 51°22.647 3°11.909 -999 -999 -999 -999
2007-07-30 08:21:25 51°22.653 3°11.932 -999 -999 -999 -999
2007-07-30 08:21:30 51°22.66 3°11.956 -999 -999 -999 -999
2007-07-30 08:21:34 51°22.665 3°11.975 -999 -999 -999 -999
2007-07-30 08:21:40 51°22.674 3°12.003 -999 -999 -999 -999
2007-07-30 08:21:45 51°22.68 3°12.026 -999 -999 -999 -999
2007-07-30 08:21:50 51°22.688 3°12.05 -999 -999 -999 -999
2007-07-30 08:21:54 51°22.693 3°12.068 -999 -999 -999 -999
2007-07-30 08:22:00 51°22.7 3°12.096 -999 -999 -999 -999
2007-07-30 08:22:05 51°22.707 3°12.12 -999 -999 -999 -999
2007-07-30 08:22:10 51°22.714 3°12.143 -999 -999 -999 -999
2007-07-30 08:22:15 51°22.719 3°12.167 -999 -999 -999 -999
2007-07-30 08:22:20 51°22.727 3°12.189 -999 -999 -999 -999
2007-07-30 08:22:25 51°22.733 3°12.213 -999 -999 -999 -999
2007-07-30 08:22:30 51°22.74 3°12.236 -999 -999 -999 -999
2007-07-30 08:22:35 51°22.746 3°12.26 -999 -999 -999 -999
2007-07-30 08:22:40 51°22.754 3°12.282 -999 -999 -999 -999
2007-07-30 08:22:45 51°22.76 3°12.306 -999 -999 -999 -999
2007-07-30 08:22:50 51°22.767 3°12.33 -999 -999 -999 -999